DW5914 Anacortes WA US current weather conditions

sailwx.info

Wind from 167

Air temperature 10.0° C
Dewpoint 7.1° C

Last reported at 2019-Jun-20 11:01 UTC.
Time now 2019-Jun-20 11:39 UTC

Location: N 48°33' W 122°36'.
View on Google Maps.

See reports from other nearby stations

  
Tides and Currents Weather Stations Pressure Air Temp Water Temp Dewpoint Dewpoint Depression Visibility Wind Speed Wind Dir Waves Ship Positions
date/time (UTC)wind fromknots sea level pressurealtimeterstation pressurevisibilityair tempwater tempwave heightnotes
2019-Jun-20 11:01 167 10.0
2019-Jun-20 10:46 167 10.0
2019-Jun-20 10:31 167 10.0
2019-Jun-20 10:17 167 10.0
2019-Jun-20 10:02 167 9.4
2019-Jun-20 09:47 167 10.0
2019-Jun-20 09:32 167 10.0
2019-Jun-20 09:17 167 10.0
2019-Jun-20 09:01 167 10.0
2019-Jun-20 08:47 167 10.0
2019-Jun-20 08:31 167 10.0
2019-Jun-20 08:16 167 10.6
2019-Jun-20 08:01 171 10.6
2019-Jun-20 07:46 171 10.6
2019-Jun-20 07:31 176 10.6
2019-Jun-20 07:15 176 11.1
2019-Jun-20 07:01 166 11.1
2019-Jun-20 06:46 193 11.1
2019-Jun-20 06:30 167 11.1
2019-Jun-20 06:17 253 11.1
2019-Jun-20 06:01 186 11.1
2019-Jun-20 05:46 179 11.1
2019-Jun-20 05:30 141 0 gusting 6 11.1
2019-Jun-20 05:16 166 11.7
2019-Jun-20 05:01 197 11.7
2019-Jun-20 04:46 193 0 gusting 9 11.7
2019-Jun-20 04:31 217 3 gusting 11 11.7
2019-Jun-20 04:16 180 1 gusting 13 11.7
2019-Jun-20 04:01 171 11.7
2019-Jun-20 03:46 191 11.7
2019-Jun-20 03:31 148 0 gusting 13 12.2
2019-Jun-20 03:16 196 1 gusting 10 12.2
2019-Jun-20 03:01 286 0 gusting 12 12.2
2019-Jun-20 02:45 172 1 gusting 10 12.2
2019-Jun-20 02:30 209 1 gusting 8 12.8
2019-Jun-20 02:15 242 13.3
2019-Jun-20 01:45 176 0 gusting 14 13.3
2019-Jun-20 01:30 159 4 gusting 13 13.3
2019-Jun-20 01:15 189 0 gusting 14 13.3
2019-Jun-20 01:00 205 1 gusting 12 13.9
2019-Jun-20 00:46 202 4 gusting 13 13.9
2019-Jun-20 00:30 205 4 gusting 15 14.4
2019-Jun-20 00:15 144 2 gusting 15 15.0
2019-Jun-20 00:00 208 15.6
2019-Jun-19 23:45 188 2 gusting 12 16.7
2019-Jun-19 23:30 095 2 gusting 13 17.2
2019-Jun-19 23:15 194 3 gusting 14 16.7
2019-Jun-19 23:00 241 4 gusting 16 15.0
2019-Jun-19 22:45 307 1 gusting 8 15.0
2019-Jun-19 22:30 174 0 gusting 11 16.1
2019-Jun-19 22:15 180 3 gusting 13 16.7
2019-Jun-19 22:00 224 1 gusting 13 17.8
2019-Jun-19 21:45 167 3 gusting 9 15.6
2019-Jun-19 21:30 196 2 gusting 10 15.0
2019-Jun-19 21:15 094 1 gusting 13 15.6
2019-Jun-19 21:00 173 1 gusting 11 15.0
2019-Jun-19 20:45 199 4 gusting 15 16.1
2019-Jun-19 20:31 161 1 gusting 12 16.1
2019-Jun-19 20:16 209 4 gusting 15 16.1
2019-Jun-19 20:01 240 0 gusting 9 16.1
2019-Jun-19 19:46 171 15.6
2019-Jun-19 19:31 234 3 gusting 10 15.0
2019-Jun-19 19:16 192 1 gusting 10 15.0
2019-Jun-19 19:01 058 0 gusting 8 15.0
2019-Jun-19 18:46 192 1 gusting 8 14.4
2019-Jun-19 18:31 224 4 gusting 13 13.9
2019-Jun-19 18:15 192 0 gusting 9 14.4
2019-Jun-19 18:01 209 0 gusting 8 13.9
2019-Jun-19 17:46 197 0 gusting 6 13.3
2019-Jun-19 17:31 165 0 gusting 6 13.9
2019-Jun-19 17:15 186 1 gusting 7 13.9
2019-Jun-19 17:00 224 0 gusting 11 13.3
2019-Jun-19 16:45 206 1 gusting 13 13.3
2019-Jun-19 16:31 336 13.3
2019-Jun-19 16:16 261 0 gusting 8 12.8
2019-Jun-19 16:01 184 12.8
2019-Jun-19 15:46 192 0 gusting 6 12.8
2019-Jun-19 15:30 192 0 gusting 10 12.2
2019-Jun-19 15:15 221 0 gusting 7 11.7
2019-Jun-19 15:00 168 11.7
2019-Jun-19 14:45 176 11.7
2019-Jun-19 14:30 121 11.7
2019-Jun-19 14:15 207 11.1
2019-Jun-19 14:00 191 2 gusting 7 11.1
2019-Jun-19 13:46 197 0 gusting 7 11.1
2019-Jun-19 13:30 163 11.1
2019-Jun-19 13:15 180 11.1
2019-Jun-19 13:00 171 11.1
2019-Jun-19 12:45 189 1 gusting 6 10.6
2019-Jun-19 12:30 189 0 gusting 6 10.6
2019-Jun-19 12:15 171 10.6
2019-Jun-19 12:00 189 10.6
2019-Jun-19 11:45 189 10.6
2019-Jun-19 11:30 186 10.6
2019-Jun-19 11:15 192 10.6
2019-Jun-19 11:02 166 10.6
2019-Jun-19 10:47 192 10.6
2019-Jun-19 10:33 182 11.1
2019-Jun-19 10:16 186 0 gusting 6 11.1
2019-Jun-19 10:01 184 11.1
2019-Jun-19 09:47 187 0 gusting 5 11.1
2019-Jun-19 09:31 186 11.1
2019-Jun-19 09:16 146 1 gusting 6 11.1
2019-Jun-19 09:02 191 11.1
2019-Jun-19 08:46 206 3 gusting 11 11.1
2019-Jun-19 08:31 209 1 gusting 8 11.1
2019-Jun-19 08:15 226 0 gusting 8 11.1
2019-Jun-19 08:01 191 1 gusting 6 11.1
2019-Jun-19 07:46 160 1 gusting 8 11.1
2019-Jun-19 07:31 206 5 gusting 10 11.1
2019-Jun-19 07:15 180 11.1
2019-Jun-19 07:01 171 11.1
2019-Jun-19 06:45 174 11.1
2019-Jun-19 06:31 178 1 gusting 6 11.1
2019-Jun-19 06:15 186 3 gusting 11 11.1
2019-Jun-19 06:01 176 0 gusting 7 11.7
2019-Jun-19 05:46 205 1 gusting 6 11.7
2019-Jun-19 05:31 174 2 gusting 7 11.7
2019-Jun-19 05:16 169 2 gusting 12 11.7
2019-Jun-19 05:01 198 2 gusting 12 11.7
2019-Jun-19 04:46 182 1 gusting 9 11.7
2019-Jun-19 04:31 173 0 gusting 10 12.2
2019-Jun-19 04:15 186 0 gusting 12 12.2
2019-Jun-19 04:00 175 0 gusting 11 12.8
2019-Jun-19 03:46 161 4 gusting 14 13.3
2019-Jun-19 03:30 067 2 gusting 13 13.3
2019-Jun-19 03:15 208 5 gusting 13 13.9
2019-Jun-19 03:00 178 2 gusting 16 13.9
2019-Jun-19 02:46 186 3 gusting 12 13.9
2019-Jun-19 02:30 276 3 gusting 11 14.4
2019-Jun-19 02:15 165 0 gusting 7 15.0
2019-Jun-19 02:00 171 1 gusting 12 15.6
2019-Jun-19 01:45 238 0 gusting 11 15.6
2019-Jun-19 01:30 201 0 gusting 9 16.1
2019-Jun-19 01:15 138 0 gusting 8 16.1
2019-Jun-19 01:00 207 0 gusting 9 16.7
2019-Jun-19 00:45 198 16.7
2019-Jun-19 00:30 183 16.1
2019-Jun-19 00:15 165 2 gusting 9 16.1
2019-Jun-19 00:00 173 1 gusting 9 16.7
2019-Jun-18 23:45 248 16.7
2019-Jun-18 23:30 227 0 gusting 6 16.7
2019-Jun-18 23:15 219 1 gusting 8 17.2
2019-Jun-18 23:00 287 17.8
2019-Jun-18 22:45 182 3 gusting 10 17.8
2019-Jun-18 22:30 205 0 gusting 6 17.8
2019-Jun-18 22:15 190 17.8
2019-Jun-18 22:00 225 3 gusting 8 17.8
2019-Jun-18 21:45 163 19.4
2019-Jun-18 21:01 192 1 gusting 9 17.8
2019-Jun-18 20:46 215 18.3
2019-Jun-18 20:32 192 0 gusting 11 17.8
2019-Jun-18 20:16 203 3 gusting 9 17.8
2019-Jun-18 20:01 151 2 gusting 10 17.8
2019-Jun-18 19:46 171 0 gusting 9 17.8
2019-Jun-18 19:31 250 1 gusting 10 17.2
2019-Jun-18 19:16 251 1 gusting 10 17.2
2019-Jun-18 19:02 209 0 gusting 6 17.8
2019-Jun-18 18:46 154 0 gusting 6 17.8
2019-Jun-18 18:31 142 0 gusting 8 17.8
2019-Jun-18 18:15 302 0 gusting 4 17.2
2019-Jun-18 18:00 146 0 gusting 4 16.7
2019-Jun-18 17:46 191 16.7
2019-Jun-18 17:31 223 16.1
2019-Jun-18 17:16 177 15.6
2019-Jun-18 17:00 208 0 gusting 5 15.6
2019-Jun-18 16:46 197 0 gusting 3 15.0
2019-Jun-18 16:31 137 14.4
2019-Jun-18 16:15 212 15.0
2019-Jun-18 16:00 306 14.4
2019-Jun-18 15:45 166 13.9
2019-Jun-18 15:30 246 13.9
2019-Jun-18 15:15 192 13.3
2019-Jun-18 15:00 181 12.8
2019-Jun-18 14:45 180 12.8
2019-Jun-18 14:30 180 12.8
2019-Jun-18 14:15 181 12.8
2019-Jun-18 14:00 181 12.8
2019-Jun-18 13:45 190 12.2
2019-Jun-18 13:30 177 0 gusting 6 12.2
2019-Jun-18 13:15 173 0 gusting 6 12.2
2019-Jun-18 13:03 213 2 gusting 7 12.2
2019-Jun-18 12:47 210 12.8
2019-Jun-18 12:31 169 0 gusting 5 12.8
2019-Jun-18 12:16 179 0 gusting 7 12.8
2019-Jun-18 12:01 198 0 gusting 3 12.8
2019-Jun-18 11:47 194 0 gusting 3 12.8
2019-Jun-18 11:32 186 0 gusting 3 12.8
2019-Jun-18 11:16 186 12.8
2019-Jun-18 11:01 185 12.8